This demonstration page uses our WeatherBlox Daily Observations layout. Learn more.

41.55636, -103.73856

Hourly Observations for May 28, 2020

Temp ( °F °C ) Dew Point ( °F °C ) Humidity (%) Winds ( mph kmh ) Pressure ( in mb ) Visibility ( mi km ) Precip ( " mm )
1:58 am 01:58 Mostly Cloudy 69 20.3 49 9.5 50 50 SSE 13 20 29.95 1014 10 16.0934 0 0
2:58 am 02:58 Mostly Clear 65 18.1 48 8.8 55 55 SSE 10 17 29.96 1015 10 16.0934 0 0
3:58 am 03:58 Partly Cloudy 63 17.1 48 8.9 59 59 NE 6 9 30.01 1016 10 16.0934 0 0
4:58 am 04:58 Mostly Cloudy 58 14.3 52 11.3 82 82 NE 10 17 30.05 1018 10 16.0934 0 0
5:58 am 05:58 Mostly Cloudy 56 13.5 52 11.3 87 87 NE 13 20 30.07 1018 10 16.0934 0 0
6:58 am 06:58 Mostly Cloudy 54 12 51 10.6 91 91 NE 8 13 30.07 1018 10 16.0934 0 0
7:58 am 07:58 Mostly Cloudy 51 10.8 50 9.9 94 94 NE 8 13 30.09 1019 10 16.0934 0 0
8:58 am 08:58 Mostly Cloudy 51 10.7 49 9.7 94 94 NNE 9 15 30.1 1019 10 16.0934 0 0
9:58 am 09:58 Mostly Cloudy 52 11.2 50 10.2 94 94 NE 10 17 30.11 1020 10 16.0934 0 0
10:58 am 10:58 Mostly Cloudy 52 11.1 49 9.7 91 91 ENE 7 11 30.14 1021 10 16.0934 0 0
11:58 am 11:58 Cloudy 52 11.3 51 10.4 94 94 Calm 30.17 1022 10 16.0934 0 0
12:58 pm 12:58 Cloudy 54 12.2 51 10.6 90 90 N 6 9 30.19 1023 10 16.0934 0 0
1:58 pm 13:58 Mostly Cloudy 55 12.8 51 10.4 85 85 N 5 7 30.2 1023 10 16.0934 0 0
2:58 pm 14:58 Cloudy 56 13.4 51 10.3 82 82 NNE 9 15 30.24 1024 10 16.0934 0 0
3:58 pm 15:58 Mostly Cloudy 57 14 50 10 77 77 NNW 7 11 30.24 1024 10 16.0934 0 0
4:58 pm 16:58 Mostly Cloudy 58 14.5 50 10.1 75 75 N 5 7 30.26 1025 10 16.0934 0 0
5:58 pm 17:58 Mostly Cloudy 62 16.8 51 10.7 67 67 E 6 9 30.24 1024 10 16.0934 0 0
6:58 pm 18:58 Mostly Cloudy 60 15.6 49 9.5 67 67 NE 13 20 30.26 1025 10 16.0934 0 0
7:58 pm 19:58 Cloudy 61 16.2 49 9.6 65 65 ENE 12 19 30.27 1025 10 16.0934 0 0
8:58 pm 20:58 Mostly Cloudy 64 18 51 10.6 62 62 NE 5 7 30.24 1024 10 16.0934 0 0
9:58 pm 21:58 Mostly Cloudy 65 18.6 49 9.7 56 56 ENE 10 17 30.21 1023 10 16.0934 0 0
10:58 pm 22:58 Mostly Cloudy 67 19.4 50 10.1 55 55 ENE 8 13 30.21 1023 10 16.0934 0 0
11:58 pm 23:58 Sunny 66 19.1 50 9.9 55 55 E 8 13 30.2 1023 10 16.0934 0 0

Powered by AerisWeather